Вернуться в каталог

STARLINK-37422

АктивенСвязьVLEO
NORAD 69191·PAYLOAD·🇺🇸 United States

Запущен May 25, 2026 с Cape Canaveral Space Force Station

Loading…

Ближайшие Пролёты (ближайшие 24 часа)

TLE

СвежийSource: CelesTrak SupGP

Эпоха: Sep 15, 2026, 02:56 UTC

1 69191C 26114K   26258.12270833  .00043030  00000+0  12714-2 0  2583
2 69191  53.1561 139.0111 0001063  72.1032 101.9279 15.34366493    14

Отслеживайте STARLINK-37422 в реальном времени с AllMySat

Download on the App Store